Rechercher aéroport 
image banner adimage banner adimage banner ad
image banner ad

KMRY - Monterey Rgnl

Situé à Monterey, United States

ICAO - MRY, IATA - MRY

Données fournies par Airmate  

Information générale

Coordonnées: N36°35'13" W121°50'34"
Élévation : 257 feet MSL.
Variation magnétique : 15° East
Voir autres Aéroports à California

Données opérationnelles

Special qualification required
Heure actuelle UTC:
Heure actuelle locale:
Météo
METAR: KMRY 212254Z 23011KT 10SM CLR 27/09 A3005 RMK AO2 SLP187 T02670094
TAF: KMRY 211736Z 2118/2218 27005KT 6SM HZ FEW200 FM212100 31009KT 6SM HZ FEW200 FM220200 VRB04KT P6SM FEW007 FM220900 VRB03KT 3SM BR OVC005 FM221700 VRB04KT 6SM BR BKN005
Voir NOTAMs / SUP AIP / TFR affectant cet aéroport [VIEW]
Fréquences de communication: [VIEW]

Pistes:

Identifiant RWYQFULongueur (ft)Largeur (ft)SurfaceLDA (ft)
10R113°7175150ASPH7000
28L293°7175150ASPH7000
10L113°350360ASPH3504
28R293°350360ASPH3504

Coordonnées de l'aéroport

Adresse: Monterey United States

Autres services d'aviation

Écoles de pilotage

Aerodynamic Aviation - Monterey

Aerodynamic Aviation - Monterey

Vue satellite de KMRY